, FL

(GMT )
Crestview

Weather History for KEGI - October, 2011

Change the Weather History Date:

Monday, October 10, 2011

  Actual Average Record
Temperature  
Mean Temperature 70 °F -  
Max Temperature 76 °F - - ()
Min Temperature 65 °F - - ()
Cooling Degree Days 6    
Growing Degree Days 20 (Base 50)    
Moisture  
Dew Point 64 °F    
Average Humidity 88    
Maximum Humidity 96    
Minimum Humidity 64    
Precipitation  
Precipitation 0.00 in - - ()
Sea Level Pressure  
Sea Level Pressure 29.89 in    
Wind  
Wind Speed 11 mph (North)    
Max Wind Speed 18 mph    
Max Gust Speed 29 mph    
Visibility 10 miles    
Events Rain    
T = Trace of Precipitation, MM = Missing Value Source: NWS Daily Summary

Daily Weather History Graph

Daily Weather History Graph

Search for Another Location

Airport or City:

Trip Planner

Search our weather history database for the weather conditions in past years. The results will help you decide how hot, cold, wet, or windy it might be!

Date:

Astronomy

Oct. 10, 2011 Rise Set
Actual Time 6:45 AM CDT 6:20 PM CDT
Civil Twilight 6:20 AM CDT 6:44 PM CDT
Nautical Twilight 5:52 AM CDT 7:12 PM CDT
Astronomical Twilight 5:25 AM CDT 7:40 PM CDT
Moon 5:24 PM CDT (10/10) 5:27 AM CDT (10/10)
Length of Visible Light 12h 24m
Length of Day
11h 35m
Waxing Gibbous, 98% of the Moon is Illuminated
Oct 10
Waxing Gibbous
Oct 11
Full
Oct 19
Last Quarter
Oct 26
New
Nov 2
First Quarter

Hourly Weather History & Observations

Time (CDT) Temp. Dew Point Humidity Pressure Visibility Wind Dir Wind Speed Gust Speed Precip Events Conditions
12:55 AM 66.7 °F 61.2 °F 82% 29.99 in 10.0 mi NNE 5.8 mph - N/A   Partly Cloudy
1:55 AM 66.6 °F 61.9 °F 85% 29.98 in 10.0 mi NNE 6.9 mph - N/A   Clear
2:55 AM 66.7 °F 62.1 °F 85% 29.96 in 10.0 mi NNE 6.9 mph - N/A   Clear
3:55 AM 66.6 °F 62.2 °F 86% 29.95 in 10.0 mi North 8.1 mph - N/A   Clear
4:55 AM 66.4 °F 61.9 °F 85% 29.94 in 10.0 mi NNE 8.1 mph - N/A   Clear
5:55 AM 66.0 °F 61.5 °F 85% 29.95 in 10.0 mi NNE 5.8 mph - N/A   Partly Cloudy
6:40 AM 66.2 °F 60.8 °F 83% 29.95 in 10.0 mi North 8.1 mph - N/A   Mostly Cloudy
6:43 AM 66.2 °F 60.8 °F 83% 29.95 in 10.0 mi North 8.1 mph - N/A   Scattered Clouds
6:55 AM 65.5 °F 61.3 °F 86% 29.95 in 10.0 mi North 8.1 mph - N/A   Scattered Clouds
7:55 AM 66.6 °F 61.7 °F 84% 29.95 in 10.0 mi North 9.2 mph - N/A   Scattered Clouds
8:55 AM 70.0 °F 62.6 °F 77% 29.95 in 10.0 mi North 10.4 mph - N/A   Overcast
9:55 AM 73.9 °F 63.1 °F 69% 29.94 in 10.0 mi North 15.0 mph 21.9 mph N/A   Mostly Cloudy
10:13 AM 75.2 °F 64.4 °F 69% 29.94 in 10.0 mi North 15.0 mph 19.6 mph N/A   Mostly Cloudy
10:16 AM 75.2 °F 62.6 °F 65% 29.94 in 10.0 mi North 15.0 mph - N/A   Scattered Clouds
10:21 AM 73.4 °F 62.6 °F 69% 29.94 in 10.0 mi North 15.0 mph 20.7 mph N/A   Mostly Cloudy
10:55 AM 73.9 °F 63.3 °F 69% 29.94 in 10.0 mi North 16.1 mph 21.9 mph N/A   Overcast
11:55 AM 76.3 °F 63.3 °F 64% 29.92 in 10.0 mi NNE 18.4 mph 28.8 mph N/A   Mostly Cloudy
12:01 PM 75.2 °F 62.6 °F 65% 29.92 in 10.0 mi NNE 16.1 mph 28.8 mph N/A   Mostly Cloudy
12:29 PM 73.4 °F 62.6 °F 69% 29.92 in 10.0 mi NNE 12.7 mph 24.2 mph N/A   Overcast
12:46 PM 71.6 °F 62.6 °F 73% 29.91 in 10.0 mi North 13.8 mph 25.3 mph N/A Rain Light Rain
12:55 PM 70.7 °F 64.0 °F 79% 29.91 in 10.0 mi North 15.0 mph 23.0 mph 0.00 in   Light Drizzle
1:27 PM 68.0 °F 64.4 °F 88% 29.89 in 10.0 mi North 15.0 mph 23.0 mph N/A Rain Light Rain
1:29 PM 68.0 °F 64.4 °F 88% 29.89 in 10.0 mi North 15.0 mph 23.0 mph N/A Rain Light Rain
1:31 PM 68.0 °F 64.4 °F 88% 29.89 in 10.0 mi North 11.5 mph 23.0 mph N/A Rain Light Rain
1:39 PM 68.0 °F 64.4 °F 88% 29.89 in 10.0 mi North 16.1 mph - N/A   Overcast
1:46 PM 68.0 °F 64.4 °F 88% 29.88 in 10.0 mi North 16.1 mph 21.9 mph N/A   Light Drizzle
1:55 PM 68.0 °F 65.3 °F 91% 29.88 in 10.0 mi North 13.8 mph 21.9 mph 0.00 in Rain Light Rain
1:56 PM 68.0 °F 66.2 °F 94% 29.88 in 10.0 mi North 15.0 mph 23.0 mph N/A Rain Light Rain
2:07 PM 68.0 °F 66.2 °F 94% 29.88 in 9.0 mi NNW 12.7 mph - N/A Rain Light Rain
2:19 PM 68.0 °F 64.4 °F 88% 29.88 in 7.0 mi NNW 13.8 mph 21.9 mph N/A   Overcast
2:24 PM 68.0 °F 66.2 °F 94% 29.88 in 6.0 mi NNW 12.7 mph - N/A Rain Rain
2:34 PM 66.2 °F 64.4 °F 94% 29.87 in 6.0 mi NNW 15.0 mph - N/A   Overcast
2:36 PM 66.2 °F 64.4 °F 94% 29.87 in 8.0 mi NNW 15.0 mph - N/A Rain Light Rain
2:49 PM 66.2 °F 64.4 °F 94% 29.87 in 10.0 mi NNW 12.7 mph - N/A   Light Drizzle
2:52 PM 66.2 °F 64.4 °F 94% 29.87 in 10.0 mi NNW 11.5 mph - N/A   Overcast
2:55 PM 66.7 °F 64.9 °F 94% 29.87 in 10.0 mi NNW 11.5 mph - 0.00 in   Overcast
2:57 PM 66.2 °F 64.4 °F 94% 29.87 in 10.0 mi NNW 10.4 mph - N/A   Overcast
3:11 PM 66.2 °F 64.4 °F 94% 29.86 in 10.0 mi NNW 13.8 mph - N/A   Light Drizzle
3:27 PM 66.2 °F 64.4 °F 94% 29.86 in 7.0 mi NNW 12.7 mph - N/A   Light Drizzle
3:32 PM 66.2 °F 64.4 °F 94% 29.86 in 9.0 mi NNW 12.7 mph - N/A   Light Drizzle
3:34 PM 66.2 °F 64.4 °F 94% 29.86 in 10.0 mi North 11.5 mph - N/A   Overcast
3:55 PM 66.7 °F 65.3 °F 95% 29.86 in 8.0 mi NNW 12.7 mph - 0.00 in   Overcast
4:06 PM 66.2 °F 64.4 °F 94% 29.85 in 9.0 mi NNW 11.5 mph - N/A   Overcast
4:55 PM 66.4 °F 64.9 °F 95% 29.84 in 10.0 mi NNW 12.7 mph - N/A   Overcast
5:37 PM 66.2 °F 64.4 °F 94% 29.84 in 10.0 mi NNW 10.4 mph - N/A   Overcast
5:44 PM 66.2 °F 64.4 °F 94% 29.84 in 10.0 mi NNW 11.5 mph - N/A   Overcast
5:55 PM 65.8 °F 64.8 °F 96% 29.84 in 10.0 mi North 10.4 mph - N/A   Overcast
5:58 PM 66.2 °F 64.4 °F 94% 29.84 in 10.0 mi NNW 9.2 mph - N/A   Overcast
6:36 PM 66.2 °F 64.4 °F 94% 29.84 in 10.0 mi NNW 10.4 mph - N/A   Overcast
6:44 PM 66.2 °F 64.4 °F 94% 29.84 in 10.0 mi NNW 10.4 mph - N/A   Overcast
6:55 PM 65.8 °F 64.8 °F 96% 29.84 in 10.0 mi NNW 8.1 mph - N/A   Overcast
7:55 PM 65.8 °F 64.8 °F 96% 29.85 in 10.0 mi NNW 10.4 mph - N/A   Overcast
8:21 PM 66.2 °F 64.4 °F 94% 29.86 in 10.0 mi NNW 9.2 mph - N/A   Overcast
8:50 PM 66.2 °F 64.4 °F 94% 29.86 in 10.0 mi North 10.4 mph - N/A   Overcast
8:55 PM 65.8 °F 64.8 °F 96% 29.86 in 10.0 mi North 10.4 mph - N/A   Overcast
9:26 PM 66.2 °F 64.4 °F 94% 29.84 in 9.0 mi North 10.4 mph - N/A   Overcast
9:47 PM 66.2 °F 64.4 °F 94% 29.85 in 10.0 mi North 8.1 mph - N/A   Overcast
9:55 PM 65.8 °F 64.8 °F 96% 29.84 in 10.0 mi North 8.1 mph - N/A   Overcast
9:59 PM 66.2 °F 64.4 °F 94% 29.85 in 10.0 mi North 10.4 mph - N/A   Overcast
10:38 PM 66.2 °F 64.4 °F 94% 29.83 in 10.0 mi North 10.4 mph - N/A   Overcast
10:55 PM 66.0 °F 64.9 °F 96% 29.83 in 10.0 mi North 9.2 mph - N/A   Overcast
11:55 PM 66.2 °F 64.4 °F 94% 29.81 in 10.0 mi North 9.2 mph - N/A   Overcast